Vorticity
6 6 5 6 9 8 5 5 3 4 4 4 5 5 9 10 9 7 5 7 8 8 7 7 8 7 9 8 7 7 7 10 10 7 3 2 3 5 8 8 8 6 5 6 4 6 6 5 7 6 7 8 6 6 6 6 6 5 5 4 6 7 6 6 4 2 3 2 1 4 5 5 7 6 6 5 5 6 5 4 4 5 5 5 4 5 5 6 7 8 7 7 7 6 5 6 5
6 6 6 7 9 6 4 7 4 3 3 4 7 5 7 9 8 8 6 7 8 8 8 6 6 6 7 5 8 8 8 9 5 6 6 3 3 3 4 6 6 6 8 6 4 4 5 5 6 6 5 4 4 5 4 6 6 6 6 4 4 5 6 6 4 4 4 3 2 4 5 6 7 6 6 5 4 5 5 5 5 6 6 5 5 5 6 5 7 8 8 8 8 7 5 5 4
6 8 7 6 9 7 5 6 3 4 4 4 7 6 6 7 8 10 8 6 7 8 7 6 4 5 7 5 5 6 6 7 4 6 7 4 4 5 4 5 4 6 7 6 6 4 5 5 5 5 4 4 4 4 3 3 3 4 5 6 6 4 7 7 6 5 4 4 4 6 7 8 7 6 6 5 7 6 5 5 5 6 6 6 5 5 4 5 7 6 7 9 8 6 5 4 4
5 8 6 6 9 7 5 4 5 7 6 4 6 7 6 6 9 11 9 7 6 7 7 7 5 4 6 6 5 5 7 8 8 7 7 7 5 5 5 4 3 5 6 6 6 4 4 4 5 5 4 5 4 5 5 3 2 3 3 4 6 5 6 5 7 7 6 6 7 9 10 9 7 6 6 5 7 7 6 7 6 6 6 6 5 5 5 6 7 8 9 9 8 5 4 4 5
5 7 7 7 6 5 6 5 6 7 6 6 4 6 7 6 9 10 8 6 4 5 8 9 7 5 4 6 7 7 9 8 8 8 7 8 7 6 6 6 4 4 4 5 6 5 5 5 5 5 4 5 3 4 4 3 4 5 5 2 3 5 3 2 4 6 7 8 10 10 8 7 6 6 7 7 6 7 7 7 8 7 5 5 5 6 6 6 8 10 10 8 7 5 4 5 6
7 6 7 7 4 4 7 4 6 8 7 7 4 6 7 6 8 10 9 7 5 6 8 7 6 6 6 7 8 9 10 9 9 9 8 7 7 7 6 6 7 6 4 4 5 5 7 7 5 4 3 4 3 4 4 4 6 6 6 4 4 4 5 5 4 6 8 8 9 7 7 5 5 7 7 7 7 6 7 7 7 7 6 5 5 7 7 6 8 10 10 8 7 6 4 4 6
10 9 5 8 7 5 5 4 6 8 9 7 5 6 7 8 8 10 9 7 7 6 6 6 6 7 8 8 8 9 10 10 9 10 10 9 8 8 8 8 8 9 8 6 5 4 7 8 6 5 3 4 4 4 5 5 5 6 5 3 4 4 6 7 5 8 8 6 5 4 6 6 6 7 6 7 7 6 6 6 6 6 6 4 4 6 6 6 7 9 10 8 5 5 4 4 6
11 11 4 5 8 5 4 6 7 6 9 9 7 6 6 9 9 9 8 7 8 7 6 7 8 8 9 9 8 9 9 9 8 9 9 9 9 8 8 9 9 9 8 7 7 6 6 7 5 6 6 6 6 5 7 6 4 5 4 3 4 5 5 4 4 7 5 3 4 4 5 5 6 7 7 6 5 6 8 7 6 6 5 4 4 5 7 6 7 9 9 7 4 3 4 4 6
9 7 3 5 5 5 5 5 7 5 6 8 7 5 5 9 10 9 9 9 8 7 5 6 8 9 10 8 7 8 6 6 6 7 7 6 7 6 5 5 6 6 7 6 6 6 5 5 5 6 7 7 7 7 9 7 4 4 5 4 4 4 3 3 4 5 4 2 2 4 5 4 5 6 7 6 5 7 8 7 7 6 4 4 5 6 7 6 7 10 9 6 4 3 4 5 6
7 6 6 9 3 1 6 4 6 5 3 7 5 4 5 7 9 8 10 10 8 7 6 7 8 7 7 5 6 6 4 5 4 5 5 5 5 5 5 5 5 4 5 6 5 5 4 4 5 5 5 6 5 6 8 6 4 4 3 4 4 2 2 4 5 5 4 4 4 3 5 5 4 6 7 5 5 8 8 6 7 7 5 5 6 7 8 7 6 10 10 5 4 4 4 4 6
6 7 7 13 8 -3 2 5 6 6 2 5 5 6 6 5 8 9 9 10 7 5 6 7 7 7 7 6 6 5 4 4 4 5 5 6 6 6 6 6 6 6 4 5 5 5 5 5 6 5 5 5 4 5 6 5 5 3 2 3 4 3 2 4 4 3 2 5 6 3 5 5 4 5 6 7 6 7 8 6 5 6 5 6 7 7 7 6 6 9 8 5 5 4 3 5 6
4 6 4 9 9 -5 2 7 4 7 4 3 4 5 7 5 5 6 8 9 6 4 5 6 5 7 7 6 6 5 4 4 4 5 6 6 6 7 6 6 6 7 6 7 7 6 6 7 6 6 6 6 5 5 6 6 6 5 5 5 6 5 4 6 5 4 4 5 5 3 4 4 5 6 5 7 7 6 8 6 5 4 5 7 7 8 7 6 7 9 7 5 5 4 4 5 6
2 8 11 6 6 0 2 6 6 8 5 2 2 4 7 7 4 4 8 9 8 5 5 5 5 8 8 6 5 4 5 4 4 4 6 7 7 7 7 7 7 6 7 7 7 7 7 8 8 7 7 8 7 5 5 5 6 6 6 6 7 6 6 8 7 7 8 7 6 5 6 5 5 7 6 6 6 6 7 7 6 4 5 7 8 8 7 6 8 9 6 6 6 5 6 6 7
4 8 13 8 7 9 1 -2 10 8 3 5 2 6 7 6 6 6 9 10 9 8 6 4 4 9 10 7 5 5 5 4 4 4 5 7 7 9 9 8 8 7 9 9 7 8 8 8 8 7 7 7 6 5 5 5 7 8 6 7 7 7 7 7 8 9 10 9 9 7 6 6 6 6 6 6 6 5 6 8 5 3 5 7 9 8 6 6 8 9 6 6 6 5 7 7 8
6 4 12 10 3 10 3 -2 16 3 -5 8 3 6 7 3 8 8 8 8 8 8 7 5 2 5 6 7 9 7 5 5 4 4 5 6 7 9 10 9 8 7 7 7 7 6 6 8 8 8 8 8 8 6 6 7 7 8 7 8 7 7 7 7 8 7 7 8 8 7 7 7 7 7 6 6 7 5 6 7 5 3 5 7 9 7 5 6 8 9 7 5 5 6 7 7 8
5 3 10 11 1 10 4 -4 17 4 -8 8 4 5 8 3 7 7 8 7 8 8 6 7 5 5 5 5 11 11 6 6 5 4 4 6 8 8 8 7 6 6 5 5 5 5 5 6 7 8 7 8 10 7 6 8 6 7 7 7 6 7 7 7 7 5 8 10 7 7 8 8 8 10 9 6 6 5 6 7 6 4 5 7 9 6 5 6 8 8 6 5 5 6 8 8 7
5 4 7 12 4 10 8 -2 11 6 -2 6 3 5 6 6 6 4 7 8 8 9 9 8 4 5 7 4 9 12 7 8 6 5 6 7 8 6 5 5 4 5 5 5 6 6 7 6 6 7 7 6 7 7 8 8 6 7 7 8 8 7 7 6 6 7 8 8 8 7 6 7 10 12 9 7 6 5 7 8 6 4 5 8 8 6 5 6 8 8 6 4 5 7 8 8 7
6 -1 2 18 5 -0 9 7 6 4 2 3 3 6 4 6 6 4 7 9 7 8 11 9 5 7 8 4 6 11 8 8 8 6 8 8 7 4 4 5 5 6 6 7 7 8 8 6 6 6 7 7 6 6 8 8 7 8 7 8 8 9 8 6 6 9 8 5 5 6 5 6 10 11 9 9 8 6 6 7 5 4 6 9 7 5 6 6 8 9 6 4 5 7 8 8 7
6 -9 -4 22 7 -3 7 6 5 6 6 2 2 5 5 6 6 6 7 9 7 6 9 10 10 8 7 4 4 10 9 8 7 6 7 6 5 4 4 6 5 7 7 7 8 8 7 6 7 7 7 8 7 5 7 8 8 9 11 11 11 11 10 9 8 6 5 6 6 5 6 8 11 10 9 9 7 6 6 6 3 4 7 8 6 5 6 7 9 9 6 4 5 7 8 7 6
6 -5 -3 15 5 2 6 3 4 5 5 5 4 4 6 7 6 7 7 9 7 4 5 8 12 8 6 6 3 8 10 8 8 6 6 5 5 4 5 6 5 5 6 7 7 7 6 6 8 7 7 7 6 6 9 11 10 11 13 12 13 13 10 11 14 13 11 10 10 10 7 8 10 7 8 9 7 7 7 5 3 4 8 7 5 6 6 8 9 8 6 4 5 8 8 6 6
3 1 -1 5 2 2 6 4 3 2 2 5 4 3 5 7 6 7 7 7 6 6 5 4 11 10 6 5 3 8 10 8 8 7 7 6 5 5 5 5 4 4 5 6 6 6 7 8 8 6 6 7 7 7 10 12 10 10 12 11 13 13 12 10 11 17 19 13 8 11 10 10 11 7 9 12 9 8 8 5 3 5 7 6 5 6 7 8 8 7 6 4 6 8 7 5 5
4 3 0 3 -0 -2 4 4 2 3 2 2 3 2 2 6 6 7 9 8 5 7 8 4 9 10 8 5 3 8 10 8 7 7 7 7 6 6 6 4 3 3 5 6 5 7 9 8 7 6 6 7 9 7 8 11 10 11 11 12 13 11 15 13 7 9 12 11 9 10 14 12 11 9 11 13 10 9 9 5 3 6 7 5 6 6 6 8 7 6 5 4 7 7 6 5 5
9 7 5 4 -0 -1 3 2 2 2 0 3 4 0 -0 5 8 6 7 8 6 8 9 5 7 8 7 6 5 8 9 8 7 6 6 7 8 7 6 5 4 4 5 6 7 8 9 9 8 7 7 8 10 7 6 9 11 13 12 13 14 10 12 12 8 9 10 15 13 11 14 13 13 13 11 11 10 9 8 5 4 6 7 6 6 6 7 8 7 6 6 7 7 7 5 4 6
9 10 8 7 6 5 3 1 2 -0 0 1 -1 2 3 4 8 10 10 8 6 9 9 6 6 7 6 5 6 7 9 9 7 5 6 6 7 8 6 5 5 6 6 6 8 9 8 9 9 7 7 11 12 9 8 8 8 10 11 12 13 11 12 11 10 11 11 12 14 14 13 13 13 13 11 11 13 11 7 4 6 7 6 6 6 7 7 7 6 6 8 8 6 5 4 5 8
9 9 7 7 7 9 8 5 3 2 4 1 -1 6 6 0 6 22 18 2 4 9 8 7 6 5 4 5 5 6 8 10 7 4 6 7 7 8 6 6 6 5 7 7 9 9 9 8 8 8 9 11 11 9 9 8 8 9 11 12 12 12 11 13 12 10 11 8 13 17 12 12 13 11 11 13 15 11 6 5 6 7 6 6 7 7 7 6 7 7 7 6 5 4 4 6 9
9 6 7 5 2 8 10 8 7 9 11 8 8 8 7 3 6 26 17 -6 4 10 5 7 6 7 5 3 5 5 8 11 8 5 7 6 7 8 6 5 6 6 7 8 10 9 8 8 8 10 11 11 10 10 9 8 11 11 11 12 12 12 10 12 10 10 17 13 16 20 10 10 10 9 11 13 13 9 5 6 6 6 6 7 7 7 6 7 8 7 6 5 4 4 5 9 10
5 4 7 4 2 4 4 8 8 8 11 12 14 8 9 11 6 22 17 -2 7 8 5 9 6 8 6 3 5 3 7 12 8 5 6 6 7 8 7 6 6 7 8 8 10 8 7 8 9 10 11 12 10 9 9 9 11 11 12 12 11 11 9 11 8 6 15 14 16 18 8 7 7 9 13 12 11 7 5 6 6 6 6 7 8 6 7 7 7 6 5 4 3 5 8 9 9
6 4 4 4 7 6 5 7 4 6 9 11 14 8 15 27 22 24 16 2 7 8 8 9 6 8 6 4 5 3 5 9 8 5 5 6 7 8 7 7 7 7 9 9 10 8 8 8 9 11 10 11 11 9 9 9 10 10 11 11 11 12 10 12 10 5 7 6 5 6 8 15 14 11 13 11 9 6 5 6 6 7 6 8 7 6 8 7 7 5 3 3 4 8 10 9 7
6 6 5 7 9 8 8 6 5 9 7 11 13 5 15 30 23 16 11 5 6 8 9 6 6 8 7 5 4 3 4 6 8 6 6 6 7 9 8 7 8 8 8 9 9 8 8 9 9 10 10 10 10 8 9 9 9 9 9 10 9 11 11 11 12 11 9 8 6 6 14 22 20 15 12 10 8 5 7 7 6 7 8 8 7 7 7 5 4 3 3 5 7 9 10 7 5
6 8 8 11 10 7 11 9 11 8 6 15 8 5 16 19 21 19 12 9 3 6 9 6 7 7 6 5 4 4 3 6 8 6 6 6 7 8 9 7 7 8 9 8 8 8 7 9 10 9 9 10 9 8 8 8 8 8 8 8 9 9 10 9 10 12 11 11 11 10 13 17 18 17 13 9 7 7 7 6 5 8 9 8 8 7 5 3 3 4 5 6 9 11 11 6 4
6 8 4 6 5 5 11 8 7 4 7 12 1 19 27 11 32 35 12 7 5 8 10 5 5 6 7 5 5 4 3 5 5 6 7 5 7 8 8 8 7 7 8 8 7 8 8 8 9 9 8 8 8 7 7 8 8 9 9 9 9 7 8 8 8 11 12 11 12 11 10 11 13 11 9 9 7 8 6 5 7 9 10 8 8 6 3 3 3 5 8 8 11 11 8 5 5
5 7 3 3 1 2 10 7 11 10 10 12 5 24 22 8 37 30 4 8 5 5 9 7 5 5 8 6 6 4 2 5 3 7 8 5 7 7 8 7 7 8 7 8 8 7 7 8 9 9 8 8 7 7 7 8 8 9 11 10 10 8 8 8 7 9 11 13 12 11 11 11 10 8 8 7 6 7 5 7 10 10 9 8 5 3 3 4 4 7 9 9 11 10 7 5 6
6 7 4 6 3 2 7 6 18 17 8 12 12 18 17 25 38 11 -1 8 2 5 7 6 6 5 9 5 6 5 1 4 4 6 7 6 7 5 7 7 7 9 8 8 8 7 7 7 8 8 8 8 7 7 7 8 8 8 11 12 10 9 8 8 8 8 10 12 12 11 10 9 8 6 6 5 6 6 6 10 12 9 7 5 4 3 5 5 4 8 9 9 10 7 7 5 4
7 8 4 7 7 5 7 5 12 16 11 13 15 22 25 25 18 -2 -0 5 2 8 7 5 6 4 9 6 5 6 4 5 4 5 6 6 7 5 6 7 7 10 9 9 7 8 8 6 8 8 8 9 8 9 8 8 9 8 9 11 11 10 9 9 8 7 8 10 11 10 9 8 6 5 5 5 8 7 7 13 11 6 5 4 4 5 7 4 3 9 9 9 10 6 7 6 4
6 12 6 5 7 3 3 5 10 12 8 11 14 19 18 6 4 5 6 7 8 9 6 7 7 5 9 7 5 6 6 6 3 4 6 7 7 6 6 6 7 9 9 9 7 7 7 7 8 7 7 8 9 9 10 10 9 9 9 8 10 11 11 12 10 8 8 9 9 9 7 7 5 5 6 6 9 8 8 12 8 3 5 5 5 5 7 6 5 9 8 8 9 6 7 6 5
-0 8 9 7 8 4 4 4 7 8 1 10 15 11 18 9 1 7 4 6 12 9 7 7 7 8 8 6 5 6 6 5 4 4 5 6 7 6 6 6 6 9 9 9 7 6 6 7 7 8 8 8 9 10 10 10 9 9 10 9 9 10 11 12 12 10 8 8 8 7 6 6 5 5 7 9 10 9 9 9 5 4 5 4 5 5 6 8 8 9 9 9 9 8 8 7 4
-2 -3 5 6 6 4 8 4 1 5 -3 6 10 -1 21 22 -1 2 5 6 11 8 8 7 6 8 7 6 5 6 7 5 5 5 4 5 7 7 6 6 6 7 9 9 7 6 6 7 8 8 8 8 9 10 9 9 9 9 9 10 10 10 11 11 12 11 9 9 8 7 6 5 6 7 9 11 10 9 7 5 4 4 4 3 5 5 5 7 8 9 9 10 10 10 9 8 6
3 2 3 4 11 4 4 7 7 13 0 1 9 -6 5 13 -0 4 6 5 8 8 10 9 7 8 6 6 4 5 8 6 5 4 5 4 5 8 6 5 6 5 8 10 8 7 6 6 8 9 9 9 9 10 10 8 7 9 8 9 10 10 11 10 11 11 10 10 9 7 7 6 7 9 10 11 10 7 5 4 4 4 3 4 4 4 6 6 7 8 8 10 10 11 11 10 9
-1 7 1 -3 14 8 2 10 8 14 7 1 11 5 3 6 1 4 5 5 6 5 10 10 8 9 7 5 3 5 6 6 6 3 5 5 4 7 7 5 6 5 7 9 8 7 6 6 7 9 10 10 9 9 9 8 6 8 8 8 9 10 12 11 11 10 10 9 9 8 8 8 9 11 11 10 8 5 4 4 5 4 3 4 4 4 6 7 8 9 8 9 10 10 11 12 12
-0 7 1 -3 15 12 5 12 7 9 10 4 7 7 7 9 7 5 3 4 5 5 8 8 9 10 9 8 5 5 5 5 7 5 4 6 4 5 7 7 6 5 6 8 8 6 6 6 5 8 10 10 10 9 8 8 7 7 7 7 7 8 9 11 12 11 11 10 10 10 10 11 11 11 10 8 6 4 5 6 4 4 4 3 5 5 5 7 9 10 9 9 10 10 10 11 11
7 9 3 -9 3 24 22 6 3 12 10 5 6 6 6 6 6 7 6 6 6 6 7 7 8 9 9 10 8 6 6 5 6 6 5 5 5 5 5 7 6 6 6 6 7 6 6 6 5 6 9 11 10 9 8 7 7 7 6 6 6 7 6 7 10 10 11 11 11 11 10 10 10 9 8 5 5 5 5 7 5 4 5 5 6 5 5 7 8 10 10 8 10 9 9 9 9
9 15 23 -8 -33 6 36 9 -3 11 13 9 5 0 8 12 8 6 5 6 6 5 8 9 6 8 9 9 10 9 7 6 5 6 6 4 3 3 5 6 6 6 6 6 7 6 6 6 7 6 6 10 11 9 8 6 6 6 6 7 5 6 6 5 7 7 8 9 8 9 8 8 7 6 6 5 5 6 6 6 5 5 6 7 7 6 5 6 7 9 9 8 9 8 10 10 7
4 6 30 20 -23 -19 12 8 -2 1 3 13 12 -4 -5 5 14 19 13 6 7 4 3 7 6 6 9 7 8 10 7 6 5 6 6 5 4 3 4 5 6 7 6 7 7 5 6 6 7 7 5 8 10 9 9 6 6 6 4 6 5 5 6 5 6 6 6 6 5 6 6 6 7 5 5 6 5 6 6 5 5 6 7 7 7 6 5 5 6 8 9 9 8 7 9 10 7
6 -0 4 16 12 -3 -1 5 7 3 -5 3 16 5 -7 -5 2 15 19 10 9 8 1 5 8 6 9 9 6 8 9 7 5 6 5 5 5 3 3 5 5 7 6 6 9 6 5 7 7 8 6 6 9 10 9 7 6 7 5 5 5 5 5 5 6 5 5 6 5 5 6 5 6 5 5 6 6 5 5 5 6 6 6 6 6 5 5 5 6 8 8 9 9 9 8 7 9
0 4 -0 5 17 12 11 8 3 12 8 -1 8 10 5 5 -5 -10 7 14 11 13 7 2 6 7 8 8 5 6 9 8 5 5 6 5 5 3 4 6 4 6 7 6 8 7 5 6 7 8 7 5 7 8 9 9 6 6 6 6 6 5 5 5 6 6 5 5 5 4 5 5 5 5 5 4 5 5 6 5 6 6 6 6 6 6 6 6 7 8 8 8 8 9 7 5 7
-11 4 8 7 13 9 14 11 1 12 11 -1 5 7 2 6 3 -7 1 11 12 19 18 7 4 4 4 5 6 8 6 7 7 5 7 6 5 7 6 6 5 4 7 7 9 8 6 6 6 8 9 6 5 6 7 8 8 7 7 7 7 6 6 5 5 6 6 5 6 6 5 5 5 4 4 5 5 6 6 6 6 7 7 7 7 7 8 9 10 9 8 8 8 8 7 5 5
-1 16 14 14 21 14 11 11 8 11 6 3 6 6 4 3 5 3 -3 -3 2 16 26 17 6 1 1 3 6 10 6 5 8 5 8 8 4 7 6 4 7 5 5 8 10 8 5 6 7 6 8 8 6 5 6 6 7 7 7 7 7 7 6 6 6 6 7 6 6 6 7 7 6 5 5 5 6 7 7 7 7 8 8 8 8 8 9 11 11 11 9 8 9 8 7 5 5
12 19 16 21 25 20 19 18 16 10 3 8 6 4 9 4 4 6 4 6 4 13 25 21 17 16 16 12 6 11 7 1 8 6 5 8 5 7 9 6 5 4 5 7 6 7 4 4 7 6 7 9 8 7 5 6 5 6 7 7 7 7 6 6 7 7 7 8 7 7 8 8 8 8 7 7 8 8 8 8 8 8 8 8 8 8 8 8 9 10 10 10 10 10 8 6 6
19 17 12 14 12 14 22 23 24 18 11 16 11 7 10 6 8 5 3 14 8 1 8 9 16 21 22 22 11 10 9 -3 4 10 4 5 6 6 9 8 5 4 5 6 4 6 7 5 5 6 7 7 8 9 7 6 5 4 6 7 6 7 7 6 7 8 7 7 8 7 8 8 9 9 9 9 9 8 8 8 8 8 7 7 7 7 6 6 7 7 8 8 8 9 8 8 7
22 12 11 15 9 9 13 14 19 15 13 25 16 5 10 8 11 10 7 21 16 2 0 -2 5 7 4 15 13 16 29 13 -1 6 8 5 5 5 6 6 8 6 4 4 5 5 6 6 5 4 7 8 7 7 8 8 8 7 5 6 6 5 6 6 6 6 6 6 7 7 7 7 8 8 8 9 8 8 7 7 7 7 7 7 6 6 6 5 6 6 6 7 7 7 7 8 8
20 4 8 13 3 3 7 5 13 10 9 29 25 7 7 5 7 9 1 6 9 8 9 3 8 6 -6 4 8 10 32 25 -2 -2 8 8 5 5 5 5 6 8 6 4 4 4 3 4 5 4 4 7 7 6 7 7 7 8 7 6 6 5 5 6 6 6 6 6 6 6 6 6 6 6 7 7 7 7 7 7 7 6 6 6 5 6 6 7 6 6 7 6 6 8 6 7 8
21 16 11 11 8 10 12 3 11 19 7 11 23 16 5 0 8 10 -4 -7 -3 1 5 3 6 8 -2 1 6 2 13 23 12 3 4 7 9 6 3 5 6 7 7 5 4 5 3 2 4 7 5 5 7 6 6 7 6 7 8 8 7 7 6 5 6 7 6 6 7 7 6 6 6 5 5 6 6 7 7 7 8 7 8 7 7 7 7 7 8 7 8 7 7 8 7 7 9
12 18 7 7 13 11 6 3 16 35 17 -8 6 25 15 1 7 9 4 11 14 4 1 3 3 6 5 5 9 5 7 23 34 27 12 3 6 10 7 5 7 8 8 7 7 5 4 3 3 5 6 5 6 7 6 7 6 6 7 8 8 7 7 7 6 6 6 6 6 7 7 7 6 6 5 6 6 6 7 6 7 8 8 8 7 8 8 7 8 8 8 9 8 8 9 8 9
-8 3 12 8 10 13 9 2 4 25 28 0 -4 18 24 18 18 11 4 14 26 17 5 6 5 7 11 8 9 11 7 12 21 25 26 13 0 5 10 7 5 7 8 6 7 7 5 5 4 2 5 7 5 7 8 6 5 6 6 6 8 7 6 6 6 6 6 6 6 6 6 6 6 6 5 6 7 6 6 6 7 7 7 8 8 8 8 7 8 8 8 8 8 8 9 9 8
-16 -15 11 5 -5 10 20 13 3 6 20 16 6 10 15 16 16 8 -1 3 19 22 12 7 4 2 9 9 7 5 2 11 16 12 17 18 12 7 5 9 5 -0 6 9 8 12 9 5 5 4 5 8 7 8 7 6 7 8 7 6 6 6 6 6 6 6 5 5 5 6 6 6 6 6 5 6 6 6 6 6 6 7 7 7 7 7 8 7 7 8 7 7 8 7 7 7 6
18 4 8 6 -4 1 10 20 19 4 4 16 17 12 8 7 3 3 8 7 12 19 14 12 9 -0 3 11 14 7 -5 -0 19 22 9 11 35 30 1 1 9 1 6 11 6 9 11 11 13 10 4 0 2 7 7 6 7 7 6 6 6 5 5 6 5 6 6 5 5 5 6 6 5 6 6 6 6 6 6 6 5 7 6 5 6 5 5 5 5 6 6 5 6 6 6 5 5
21 17 9 9 8 8 8 12 15 7 4 10 11 7 4 7 7 11 19 14 14 20 9 7 15 6 -2 2 10 17 6 -13 -3 22 13 2 33 46 9 -7 4 7 9 5 0 2 5 8 10 8 7 5 2 4 5 4 5 8 8 5 6 6 6 7 6 7 6 6 7 6 6 7 6 6 6 6 6 5 5 6 6 6 6 5 5 5 4 4 4 4 4 4 4 4 3 3 4
-5 3 6 5 1 6 10 10 13 14 11 9 14 13 5 7 12 15 21 15 14 21 9 0 9 10 4 1 -1 7 13 -4 -11 9 15 1 11 36 37 16 -3 -1 6 1 2 6 1 -0 2 2 6 8 7 7 7 6 4 6 8 5 4 5 5 5 4 5 6 5 7 8 7 8 8 8 7 6 7 7 6 7 7 6 7 6 5 5 5 5 5 5 4 4 5 5 4 4 5
Height
5895 5894 5894 5894 5893 5893 5892 5890 5890 5890 5890 5891 5891 5891 5891 5891 5890 5890 5889 5889 5889 5889 5888 5888 5888 5889 5889 5887 5887 5887 5887 5887 5888 5887 5887 5887 5887 5887 5887 5887 5888 5890 5889 5890 5891 5890 5891 5891 5892 5892 5892 5893 5893 5893 5894 5894 5894 5895 5896 5897 5898 5898 5899 5900 5900 5901 5902 5903 5903 5904 5905 5906 5906 5905 5905 5904 5905 5907 5907 5907 5908 5908 5908 5908 5908 5909 5909 5910 5910 5910 5910 5910 5911 5912 5912 5912 5913
5896 5895 5895 5895 5895 5894 5894 5892 5891 5891 5891 5892 5892 5892 5892 5891 5891 5890 5890 5890 5890 5890 5889 5889 5889 5889 5889 5888 5888 5888 5888 5889 5889 5889 5888 5888 5888 5888 5889 5889 5889 5890 5891 5891 5892 5891 5892 5892 5893 5893 5893 5893 5893 5894 5895 5895 5896 5897 5897 5898 5898 5899 5900 5901 5902 5903 5903 5903 5903 5904 5905 5906 5905 5904 5905 5905 5906 5908 5908 5908 5909 5909 5909 5909 5910 5910 5910 5911 5911 5911 5911 5911 5912 5913 5913 5913 5914
5897 5896 5896 5896 5896 5895 5894 5893 5892 5892 5893 5893 5893 5892 5892 5892 5892 5891 5890 5890 5890 5890 5890 5890 5890 5890 5890 5889 5889 5889 5889 5889 5890 5890 5890 5890 5889 5890 5890 5890 5890 5891 5891 5892 5892 5892 5893 5893 5894 5894 5894 5894 5894 5894 5895 5896 5897 5898 5899 5899 5900 5901 5902 5903 5903 5904 5904 5903 5904 5904 5905 5905 5904 5905 5905 5905 5907 5908 5909 5909 5910 5910 5909 5910 5911 5911 5911 5912 5912 5912 5911 5911 5912 5913 5914 5914 5915
5898 5897 5896 5896 5896 5895 5895 5895 5893 5893 5894 5893 5893 5893 5892 5892 5892 5891 5891 5891 5891 5891 5891 5891 5891 5891 5891 5890 5890 5890 5890 5890 5891 5891 5891 5891 5891 5891 5891 5891 5891 5892 5892 5893 5893 5893 5893 5894 5895 5895 5895 5894 5894 5895 5896 5897 5898 5899 5900 5901 5901 5902 5902 5903 5903 5903 5904 5904 5904 5904 5904 5904 5905 5906 5906 5906 5907 5908 5909 5910 5911 5911 5910 5911 5911 5912 5912 5912 5912 5912 5912 5912 5913 5914 5914 5915 5915
5899 5898 5897 5897 5897 5896 5897 5896 5894 5895 5895 5894 5894 5893 5893 5892 5892 5892 5892 5892 5892 5892 5892 5892 5892 5891 5891 5891 5891 5891 5890 5891 5891 5892 5892 5892 5892 5892 5892 5892 5892 5893 5894 5894 5894 5894 5894 5895 5895 5895 5895 5895 5895 5895 5896 5897 5898 5899 5900 5901 5902 5902 5902 5902 5902 5902 5903 5904 5904 5904 5905 5906 5906 5906 5907 5907 5907 5908 5909 5910 5911 5911 5911 5911 5912 5913 5913 5913 5913 5912 5912 5913 5913 5914 5914 5915 5915
5900 5900 5898 5897 5896 5897 5898 5896 5896 5896 5895 5894 5894 5894 5893 5893 5892 5892 5892 5892 5892 5892 5893 5892 5892 5892 5892 5892 5891 5891 5891 5891 5892 5893 5893 5893 5893 5893 5893 5893 5894 5894 5895 5895 5895 5896 5896 5896 5896 5896 5896 5896 5896 5896 5897 5898 5899 5900 5901 5901 5901 5902 5902 5902 5903 5903 5904 5904 5905 5905 5906 5907 5906 5906 5907 5908 5908 5908 5909 5910 5911 5911 5911 5912 5913 5914 5914 5913 5913 5913 5913 5914 5914 5915 5915 5915 5916
5901 5901 5900 5899 5897 5898 5898 5897 5898 5897 5896 5895 5894 5894 5893 5893 5893 5893 5893 5893 5893 5893 5893 5893 5893 5893 5893 5893 5892 5892 5892 5893 5893 5894 5894 5894 5894 5894 5894 5894 5895 5895 5895 5895 5895 5896 5896 5896 5896 5897 5897 5897 5897 5897 5898 5899 5900 5900 5901 5901 5901 5901 5902 5903 5904 5904 5904 5904 5905 5905 5906 5907 5907 5907 5907 5908 5908 5908 5909 5910 5911 5911 5911 5912 5913 5914 5915 5914 5914 5914 5914 5915 5915 5915 5916 5916 5917
5901 5901 5901 5899 5898 5898 5898 5899 5899 5898 5896 5896 5895 5894 5894 5893 5893 5893 5894 5894 5894 5894 5894 5894 5894 5894 5894 5893 5893 5894 5894 5894 5894 5894 5895 5895 5895 5895 5895 5895 5895 5896 5896 5896 5895 5896 5896 5896 5896 5897 5897 5898 5898 5898 5898 5899 5900 5900 5901 5902 5902 5902 5903 5904 5905 5905 5905 5906 5907 5906 5907 5908 5907 5906 5907 5908 5909 5909 5909 5910 5910 5911 5912 5913 5914 5915 5915 5915 5915 5915 5915 5916 5916 5917 5917 5917 5918
5902 5901 5900 5898 5898 5899 5899 5900 5900 5898 5897 5896 5896 5895 5894 5894 5894 5894 5894 5894 5894 5894 5895 5895 5895 5895 5894 5894 5894 5894 5895 5895 5895 5896 5896 5896 5896 5896 5895 5896 5896 5897 5897 5896 5896 5896 5896 5896 5897 5897 5897 5898 5898 5898 5899 5900 5900 5901 5901 5901 5902 5903 5903 5904 5905 5905 5906 5908 5908 5907 5907 5907 5906 5906 5907 5908 5910 5911 5912 5912 5912 5913 5913 5913 5914 5915 5916 5916 5916 5916 5917 5917 5918 5919 5919 5919 5919
5903 5902 5901 5899 5899 5900 5900 5901 5900 5899 5898 5897 5896 5895 5895 5894 5894 5895 5895 5895 5895 5895 5895 5895 5895 5895 5895 5896 5895 5895 5896 5896 5896 5897 5897 5897 5897 5897 5896 5897 5897 5898 5897 5897 5897 5897 5897 5897 5897 5897 5897 5898 5898 5899 5899 5900 5900 5901 5901 5902 5902 5903 5904 5905 5906 5906 5907 5908 5909 5908 5907 5906 5905 5905 5907 5908 5910 5912 5914 5913 5914 5915 5915 5915 5915 5915 5916 5916 5917 5917 5918 5918 5919 5920 5920 5920 5921
5903 5902 5901 5901 5901 5900 5901 5902 5901 5900 5899 5898 5897 5896 5895 5895 5895 5895 5896 5895 5895 5896 5896 5896 5896 5896 5896 5897 5897 5897 5897 5897 5897 5898 5898 5898 5898 5897 5897 5898 5898 5898 5898 5898 5898 5898 5898 5898 5898 5898 5898 5898 5898 5899 5900 5900 5900 5900 5901 5902 5903 5904 5905 5905 5906 5907 5908 5909 5910 5909 5907 5905 5904 5905 5907 5909 5910 5912 5913 5913 5913 5916 5917 5917 5917 5916 5916 5917 5917 5917 5918 5919 5920 5920 5921 5921 5921
5903 5903 5902 5902 5901 5901 5902 5903 5902 5901 5900 5899 5898 5897 5896 5896 5896 5896 5896 5896 5896 5896 5897 5897 5897 5897 5897 5897 5897 5898 5898 5898 5898 5898 5898 5898 5899 5898 5898 5898 5899 5898 5898 5899 5899 5899 5899 5899 5899 5899 5899 5899 5899 5899 5900 5900 5901 5901 5901 5902 5903 5904 5904 5905 5907 5907 5908 5909 5909 5908 5906 5906 5906 5907 5909 5910 5911 5912 5913 5913 5913 5915 5917 5918 5919 5918 5917 5917 5918 5918 5919 5919 5920 5921 5922 5922 5923
5904 5903 5902 5901 5901 5902 5903 5903 5902 5901 5900 5899 5898 5898 5897 5897 5897 5896 5897 5897 5897 5897 5897 5898 5898 5898 5897 5897 5898 5898 5898 5898 5899 5899 5899 5899 5899 5899 5899 5899 5899 5899 5899 5900 5900 5900 5899 5899 5900 5900 5900 5900 5900 5900 5900 5900 5901 5902 5902 5902 5903 5904 5905 5906 5907 5907 5908 5908 5908 5907 5906 5907 5907 5908 5910 5911 5912 5913 5913 5913 5914 5915 5917 5919 5920 5919 5918 5918 5919 5919 5920 5920 5921 5922 5923 5923 5924
5904 5903 5901 5901 5901 5902 5903 5902 5901 5901 5900 5900 5899 5899 5898 5898 5897 5897 5897 5897 5897 5898 5898 5898 5898 5898 5898 5898 5898 5899 5899 5899 5899 5899 5900 5900 5900 5900 5900 5900 5900 5899 5899 5900 5900 5900 5900 5900 5900 5900 5900 5901 5901 5900 5899 5901 5902 5903 5903 5902 5903 5904 5905 5906 5906 5907 5908 5907 5907 5906 5905 5907 5908 5908 5910 5911 5912 5913 5914 5914 5915 5916 5917 5920 5921 5920 5919 5919 5919 5920 5921 5921 5922 5923 5924 5924 5924
5904 5903 5902 5902 5902 5902 5902 5901 5900 5901 5901 5900 5900 5900 5899 5899 5898 5897 5898 5898 5898 5899 5899 5899 5899 5899 5898 5898 5899 5899 5899 5899 5899 5899 5900 5900 5900 5900 5900 5901 5900 5900 5900 5901 5900 5901 5901 5900 5900 5900 5901 5901 5901 5900 5899 5901 5903 5903 5903 5903 5904 5905 5905 5905 5906 5906 5906 5906 5905 5905 5905 5907 5908 5909 5910 5911 5913 5914 5915 5916 5916 5917 5918 5920 5920 5920 5920 5920 5920 5921 5921 5922 5923 5924 5924 5925 5925
5904 5904 5903 5904 5904 5902 5901 5901 5901 5903 5902 5901 5901 5900 5900 5899 5899 5898 5898 5898 5899 5899 5899 5899 5899 5899 5899 5899 5899 5900 5900 5900 5900 5900 5900 5900 5900 5900 5900 5901 5901 5901 5901 5901 5901 5901 5901 5901 5901 5901 5901 5901 5901 5900 5900 5901 5902 5902 5903 5904 5904 5905 5905 5904 5905 5905 5904 5904 5904 5904 5906 5908 5908 5909 5910 5911 5913 5914 5915 5917 5917 5918 5919 5919 5920 5920 5920 5920 5921 5921 5922 5923 5924 5925 5925 5925 5926
5904 5904 5904 5905 5904 5902 5901 5901 5902 5903 5902 5901 5901 5901 5900 5900 5899 5899 5899 5899 5899 5899 5900 5900 5899 5899 5900 5899 5899 5900 5900 5900 5900 5900 5900 5900 5900 5900 5900 5901 5901 5901 5901 5901 5901 5901 5901 5901 5901 5901 5901 5901 5901 5901 5901 5901 5901 5902 5902 5903 5903 5903 5903 5902 5902 5903 5903 5904 5904 5905 5907 5908 5908 5909 5910 5911 5913 5914 5915 5917 5918 5918 5918 5919 5920 5920 5921 5921 5921 5922 5922 5923 5925 5925 5926 5926 5926
5904 5904 5905 5904 5904 5903 5902 5901 5902 5903 5902 5901 5902 5901 5900 5900 5900 5899 5899 5899 5899 5900 5900 5900 5900 5900 5900 5900 5900 5900 5901 5901 5901 5900 5900 5900 5900 5900 5901 5901 5901 5901 5902 5902 5902 5902 5902 5901 5901 5900 5900 5900 5900 5900 5901 5900 5901 5902 5902 5901 5901 5901 5901 5901 5900 5901 5903 5904 5904 5905 5907 5908 5908 5909 5910 5911 5913 5914 5915 5916 5918 5918 5919 5919 5920 5921 5921 5921 5922 5922 5923 5924 5925 5926 5926 5927 5927
5904 5904 5904 5903 5903 5903 5903 5903 5902 5902 5902 5902 5901 5900 5900 5900 5900 5900 5900 5900 5900 5900 5900 5900 5900 5900 5900 5900 5900 5901 5901 5901 5901 5901 5901 5901 5901 5901 5901 5901 5901 5902 5902 5902 5902 5902 5902 5901 5901 5900 5900 5900 5900 5900 5900 5899 5900 5901 5901 5900 5900 5900 5899 5899 5900 5900 5902 5903 5904 5906 5907 5908 5908 5908 5910 5912 5913 5914 5915 5916 5918 5918 5919 5920 5920 5921 5921 5922 5922 5922 5923 5924 5925 5926 5927 5927 5927
5904 5903 5903 5902 5902 5902 5903 5904 5903 5902 5902 5902 5901 5900 5900 5900 5900 5900 5900 5900 5900 5900 5901 5901 5901 5901 5900 5900 5900 5901 5902 5902 5902 5901 5901 5901 5901 5902 5902 5902 5901 5901 5902 5902 5902 5902 5902 5901 5901 5900 5899 5899 5899 5900 5900 5899 5900 5900 5900 5900 5899 5899 5898 5897 5898 5899 5902 5902 5904 5906 5907 5908 5908 5908 5910 5911 5912 5914 5916 5917 5918 5919 5919 5920 5921 5921 5922 5922 5922 5923 5923 5925 5926 5926 5927 5927 5927
5904 5903 5902 5902 5902 5902 5902 5903 5903 5902 5902 5901 5901 5900 5900 5900 5900 5900 5901 5901 5901 5901 5901 5901 5901 5901 5901 5901 5901 5902 5903 5902 5902 5902 5902 5902 5902 5902 5902 5902 5902 5902 5902 5902 5902 5902 5902 5901 5900 5900 5899 5899 5899 5900 5900 5899 5899 5900 5900 5900 5899 5899 5898 5897 5896 5899 5903 5902 5903 5906 5906 5907 5908 5909 5910 5911 5913 5914 5916 5917 5918 5919 5920 5921 5922 5922 5922 5922 5922 5923 5924 5925 5926 5927 5927 5927 5927
5903 5903 5903 5902 5902 5902 5902 5901 5901 5901 5901 5901 5900 5900 5899 5900 5900 5900 5901 5901 5901 5901 5901 5901 5901 5902 5902 5902 5902 5902 5903 5903 5903 5903 5903 5903 5903 5903 5903 5902 5902 5903 5903 5903 5902 5902 5902 5901 5900 5900 5899 5899 5899 5900 5899 5899 5899 5900 5900 5900 5900 5899 5898 5898 5895 5898 5903 5903 5904 5905 5906 5907 5908 5909 5910 5911 5913 5914 5916 5917 5918 5919 5920 5921 5922 5922 5922 5922 5922 5923 5924 5925 5926 5927 5928 5928 5928
5903 5902 5902 5902 5902 5901 5901 5901 5901 5901 5901 5900 5899 5899 5899 5899 5900 5900 5900 5901 5901 5901 5901 5901 5902 5902 5902 5902 5903 5903 5903 5904 5904 5904 5904 5904 5904 5904 5903 5903 5903 5903 5903 5903 5903 5902 5902 5901 5901 5900 5899 5899 5899 5899 5899 5899 5899 5900 5900 5900 5900 5899 5898 5898 5897 5899 5902 5903 5904 5905 5906 5907 5908 5909 5911 5912 5913 5914 5916 5917 5919 5920 5921 5922 5922 5922 5922 5923 5923 5924 5925 5926 5927 5928 5928 5928 5929
5902 5902 5901 5901 5901 5901 5901 5901 5901 5900 5900 5899 5899 5900 5899 5899 5900 5899 5899 5900 5901 5901 5901 5902 5902 5902 5902 5902 5903 5904 5904 5904 5904 5905 5905 5905 5905 5905 5904 5904 5904 5904 5904 5904 5903 5903 5902 5901 5901 5901 5900 5900 5899 5899 5899 5899 5899 5900 5900 5900 5901 5900 5899 5899 5898 5900 5902 5902 5903 5905 5907 5907 5908 5909 5910 5912 5914 5915 5916 5918 5919 5920 5921 5922 5922 5923 5923 5923 5924 5925 5926 5927 5928 5928 5929 5929 5930
5901 5901 5900 5900 5900 5900 5900 5900 5900 5900 5899 5899 5900 5900 5898 5899 5899 5898 5899 5899 5900 5901 5901 5902 5902 5902 5903 5903 5903 5904 5904 5905 5905 5905 5905 5906 5906 5905 5905 5904 5904 5905 5905 5905 5904 5903 5903 5902 5902 5901 5901 5901 5900 5900 5899 5899 5899 5899 5900 5900 5901 5901 5901 5900 5900 5902 5903 5903 5903 5905 5907 5907 5908 5910 5911 5913 5914 5915 5917 5918 5920 5921 5922 5922 5922 5923 5923 5924 5925 5926 5927 5928 5928 5929 5930 5930 5931
5900 5900 5899 5899 5899 5899 5899 5899 5899 5898 5899 5899 5900 5899 5897 5897 5897 5897 5899 5899 5899 5901 5901 5901 5902 5902 5903 5903 5903 5904 5904 5905 5906 5906 5906 5906 5906 5906 5906 5905 5905 5905 5905 5905 5905 5904 5904 5903 5903 5902 5902 5901 5901 5901 5900 5900 5900 5900 5900 5900 5901 5902 5902 5901 5901 5902 5903 5904 5905 5906 5908 5907 5908 5910 5912 5913 5914 5916 5917 5919 5920 5921 5922 5923 5923 5923 5923 5924 5925 5927 5928 5929 5929 5930 5930 5931 5931
5898 5898 5898 5898 5898 5898 5897 5898 5897 5897 5897 5898 5898 5897 5895 5895 5895 5896 5898 5898 5899 5900 5901 5901 5902 5903 5903 5903 5904 5904 5905 5905 5906 5906 5907 5907 5907 5907 5906 5906 5906 5906 5906 5905 5905 5905 5904 5904 5904 5903 5903 5902 5902 5902 5902 5902 5901 5901 5901 5901 5902 5903 5903 5903 5903 5904 5904 5905 5906 5907 5909 5909 5909 5911 5913 5914 5915 5916 5918 5919 5921 5922 5922 5923 5923 5924 5924 5925 5926 5928 5929 5929 5930 5931 5931 5932 5932
5898 5897 5897 5897 5897 5896 5896 5896 5896 5896 5896 5897 5897 5895 5894 5891 5891 5894 5895 5897 5899 5900 5900 5901 5902 5902 5903 5904 5904 5904 5905 5905 5906 5907 5907 5907 5907 5907 5907 5907 5907 5906 5906 5906 5906 5906 5905 5905 5904 5904 5904 5904 5903 5903 5903 5903 5903 5903 5903 5903 5903 5904 5904 5905 5905 5906 5906 5906 5907 5908 5909 5909 5910 5912 5913 5914 5916 5917 5919 5920 5921 5922 5923 5923 5924 5924 5925 5926 5928 5929 5930 5930 5931 5931 5932 5932 5933
5897 5897 5896 5896 5896 5895 5895 5895 5895 5895 5894 5895 5894 5893 5893 5890 5889 5891 5894 5896 5898 5899 5900 5901 5902 5902 5903 5903 5904 5904 5905 5905 5906 5907 5907 5907 5907 5908 5908 5907 5907 5907 5907 5906 5906 5906 5906 5906 5905 5905 5905 5905 5904 5904 5904 5904 5904 5904 5904 5904 5905 5905 5906 5907 5907 5908 5908 5908 5909 5909 5909 5910 5911 5913 5914 5915 5917 5918 5920 5921 5922 5923 5924 5924 5925 5926 5927 5928 5929 5930 5931 5931 5932 5932 5932 5933 5934
5896 5896 5896 5895 5894 5893 5894 5894 5894 5894 5893 5893 5892 5891 5891 5888 5888 5890 5893 5895 5897 5898 5899 5900 5901 5902 5903 5903 5904 5905 5905 5905 5906 5907 5907 5907 5908 5908 5908 5908 5908 5907 5907 5907 5907 5907 5907 5907 5906 5906 5906 5906 5906 5906 5905 5905 5905 5906 5906 5906 5906 5907 5907 5908 5909 5909 5910 5910 5911 5911 5911 5912 5913 5914 5915 5917 5918 5919 5920 5922 5923 5924 5925 5926 5926 5927 5928 5929 5930 5931 5932 5932 5932 5933 5933 5934 5935
5896 5896 5896 5894 5893 5892 5892 5892 5892 5893 5893 5892 5891 5889 5888 5886 5887 5890 5892 5894 5897 5898 5899 5900 5901 5902 5903 5903 5904 5905 5905 5905 5906 5906 5907 5907 5908 5908 5908 5908 5908 5908 5908 5908 5908 5908 5908 5908 5908 5907 5907 5907 5907 5907 5907 5907 5907 5907 5907 5908 5908 5908 5909 5909 5910 5911 5911 5912 5912 5913 5913 5914 5915 5915 5917 5918 5919 5920 5921 5923 5924 5925 5926 5927 5928 5929 5930 5931 5931 5932 5932 5933 5933 5934 5934 5935 5935
5896 5896 5895 5894 5892 5892 5891 5891 5892 5892 5892 5891 5889 5888 5888 5886 5887 5890 5892 5895 5896 5898 5899 5900 5901 5902 5903 5903 5904 5905 5905 5905 5906 5906 5907 5907 5908 5908 5909 5909 5908 5908 5908 5908 5909 5909 5909 5909 5909 5909 5908 5908 5908 5908 5908 5908 5908 5908 5909 5909 5909 5910 5910 5911 5911 5912 5913 5913 5914 5915 5915 5916 5916 5917 5918 5919 5920 5921 5923 5924 5925 5926 5927 5928 5929 5930 5931 5932 5932 5933 5934 5934 5934 5935 5935 5936 5936
5895 5895 5895 5893 5891 5891 5891 5890 5891 5891 5891 5891 5890 5889 5889 5888 5889 5891 5893 5895 5897 5898 5899 5900 5901 5902 5903 5903 5904 5905 5905 5905 5906 5906 5907 5907 5908 5908 5909 5909 5909 5909 5909 5909 5909 5910 5910 5910 5910 5910 5910 5909 5909 5909 5909 5909 5909 5909 5910 5910 5910 5911 5911 5912 5912 5913 5914 5915 5916 5916 5917 5917 5918 5918 5919 5920 5921 5923 5924 5926 5926 5927 5928 5929 5931 5931 5932 5933 5933 5934 5934 5935 5935 5936 5936 5936 5937
5894 5894 5893 5892 5891 5891 5891 5891 5891 5891 5891 5891 5890 5890 5890 5890 5890 5892 5892 5895 5897 5898 5899 5900 5901 5902 5903 5903 5904 5904 5905 5906 5906 5907 5907 5908 5908 5909 5909 5909 5909 5909 5909 5909 5910 5910 5911 5911 5911 5911 5911 5911 5910 5910 5910 5910 5910 5910 5911 5911 5912 5912 5912 5913 5914 5914 5915 5916 5917 5917 5918 5919 5919 5920 5921 5922 5923 5924 5925 5927 5927 5929 5930 5931 5932 5932 5933 5934 5934 5935 5935 5935 5936 5936 5936 5937 5937
5891 5892 5891 5890 5890 5890 5891 5892 5891 5891 5892 5891 5891 5891 5892 5892 5892 5893 5894 5896 5898 5899 5899 5900 5901 5902 5903 5903 5904 5904 5905 5906 5906 5907 5907 5908 5908 5909 5909 5909 5910 5910 5910 5910 5910 5911 5911 5911 5911 5911 5912 5912 5912 5912 5911 5911 5911 5911 5911 5912 5912 5913 5913 5914 5915 5915 5916 5917 5918 5919 5919 5920 5921 5922 5923 5924 5924 5925 5926 5927 5929 5930 5931 5932 5933 5933 5934 5935 5935 5935 5936 5936 5937 5937 5937 5938 5938
5889 5890 5889 5890 5890 5890 5891 5892 5891 5891 5892 5891 5891 5891 5891 5892 5894 5895 5895 5897 5898 5899 5899 5900 5901 5902 5903 5903 5904 5904 5905 5906 5906 5907 5907 5908 5908 5909 5909 5910 5910 5910 5910 5910 5911 5911 5912 5912 5912 5912 5912 5912 5913 5913 5913 5912 5912 5912 5912 5913 5913 5914 5914 5915 5915 5916 5917 5918 5919 5920 5921 5921 5922 5923 5924 5925 5926 5926 5927 5929 5930 5931 5932 5932 5933 5934 5935 5935 5936 5936 5936 5937 5937 5938 5938 5939 5939
5888 5888 5889 5890 5890 5889 5891 5891 5891 5891 5892 5892 5892 5892 5891 5892 5894 5895 5896 5897 5898 5898 5899 5900 5901 5902 5903 5903 5904 5905 5905 5906 5906 5907 5907 5908 5908 5909 5910 5910 5910 5910 5911 5911 5911 5911 5912 5912 5913 5913 5913 5913 5913 5914 5914 5914 5913 5913 5913 5914 5914 5915 5915 5916 5916 5917 5918 5919 5920 5921 5921 5922 5923 5924 5925 5926 5927 5928 5929 5930 5931 5932 5933 5933 5934 5934 5935 5936 5936 5937 5937 5937 5938 5939 5939 5940 5940
5887 5888 5889 5890 5889 5888 5890 5890 5890 5891 5892 5893 5893 5892 5892 5893 5894 5895 5896 5896 5897 5898 5899 5900 5901 5901 5902 5903 5904 5905 5905 5906 5906 5906 5907 5908 5908 5909 5910 5910 5910 5911 5911 5912 5912 5912 5912 5913 5913 5914 5914 5914 5914 5914 5915 5915 5915 5915 5915 5915 5915 5916 5916 5917 5917 5918 5919 5920 5920 5921 5922 5923 5924 5925 5926 5927 5928 5929 5930 5931 5932 5933 5934 5934 5935 5935 5936 5936 5937 5937 5938 5938 5939 5939 5940 5940 5941
5886 5887 5888 5890 5888 5887 5889 5889 5889 5891 5892 5893 5893 5893 5893 5893 5893 5894 5895 5895 5896 5897 5898 5899 5900 5901 5902 5902 5903 5904 5905 5906 5906 5906 5907 5908 5908 5909 5910 5910 5911 5911 5912 5912 5912 5912 5913 5913 5914 5914 5914 5915 5915 5915 5916 5916 5916 5916 5916 5916 5917 5917 5918 5918 5919 5919 5920 5920 5921 5922 5923 5924 5925 5926 5927 5928 5929 5930 5931 5932 5933 5934 5935 5935 5936 5936 5937 5937 5938 5938 5938 5939 5939 5940 5940 5941 5942
5884 5885 5888 5890 5889 5887 5888 5888 5888 5890 5892 5893 5893 5893 5893 5892 5892 5893 5894 5895 5895 5896 5897 5899 5900 5900 5901 5902 5903 5904 5904 5905 5905 5906 5907 5907 5908 5909 5910 5911 5911 5911 5912 5912 5913 5913 5913 5913 5914 5915 5915 5916 5916 5916 5917 5917 5918 5918 5918 5918 5918 5919 5919 5919 5920 5920 5921 5921 5922 5923 5924 5925 5926 5927 5928 5929 5930 5932 5933 5934 5934 5935 5936 5936 5937 5937 5938 5938 5939 5939 5939 5939 5939 5940 5941 5942 5942
5882 5883 5885 5888 5890 5889 5886 5886 5888 5889 5891 5892 5892 5892 5891 5891 5892 5892 5893 5894 5895 5896 5896 5898 5899 5899 5900 5901 5902 5903 5903 5904 5905 5906 5906 5907 5908 5908 5910 5911 5911 5912 5912 5912 5913 5913 5914 5914 5915 5915 5916 5916 5917 5917 5918 5918 5919 5920 5920 5920 5920 5920 5921 5921 5921 5922 5922 5923 5923 5924 5925 5925 5927 5928 5929 5930 5931 5933 5934 5935 5935 5936 5937 5937 5937 5938 5938 5939 5939 5939 5939 5940 5940 5941 5942 5942 5943
5880 5883 5884 5885 5887 5886 5883 5884 5887 5888 5890 5891 5891 5891 5890 5891 5892 5892 5893 5893 5894 5895 5896 5896 5897 5898 5899 5900 5900 5901 5902 5903 5904 5905 5906 5907 5907 5908 5909 5910 5911 5912 5912 5912 5913 5913 5914 5914 5915 5916 5916 5917 5917 5918 5918 5919 5920 5921 5921 5921 5921 5922 5922 5922 5923 5923 5924 5924 5925 5925 5926 5927 5928 5929 5930 5931 5932 5933 5934 5935 5936 5937 5937 5938 5938 5938 5939 5939 5940 5940 5940 5940 5941 5941 5942 5943 5944
5880 5882 5882 5881 5880 5879 5881 5884 5886 5887 5889 5889 5889 5890 5890 5890 5891 5890 5891 5892 5893 5893 5894 5895 5895 5897 5898 5898 5899 5900 5901 5902 5903 5904 5905 5906 5907 5907 5908 5909 5911 5912 5912 5912 5913 5913 5914 5914 5915 5916 5917 5917 5918 5918 5919 5920 5920 5921 5921 5922 5922 5923 5923 5924 5924 5925 5925 5926 5926 5926 5927 5928 5929 5930 5931 5932 5933 5934 5935 5936 5936 5937 5937 5938 5938 5939 5939 5940 5940 5940 5940 5940 5941 5941 5942 5943 5944
5880 5879 5876 5876 5875 5876 5880 5882 5884 5886 5886 5886 5888 5889 5888 5889 5889 5889 5889 5891 5891 5891 5892 5893 5894 5895 5896 5897 5898 5898 5899 5900 5902 5903 5904 5905 5906 5907 5907 5908 5910 5911 5912 5912 5913 5913 5913 5914 5915 5916 5917 5918 5918 5919 5919 5920 5921 5921 5922 5922 5923 5923 5924 5924 5925 5926 5926 5927 5927 5928 5928 5929 5930 5931 5932 5933 5934 5935 5936 5936 5937 5937 5938 5938 5938 5939 5939 5940 5940 5940 5940 5941 5941 5942 5943 5943 5944
5876 5872 5870 5873 5874 5876 5878 5880 5883 5883 5883 5885 5887 5887 5887 5887 5888 5888 5888 5889 5888 5888 5889 5891 5893 5894 5895 5896 5896 5897 5898 5899 5900 5901 5903 5904 5904 5905 5906 5907 5909 5910 5911 5912 5913 5913 5913 5914 5915 5916 5917 5918 5919 5919 5920 5920 5921 5922 5923 5923 5924 5924 5924 5925 5926 5927 5927 5928 5928 5929 5929 5930 5931 5932 5933 5934 5934 5935 5936 5937 5937 5938 5938 5938 5939 5939 5940 5940 5940 5940 5940 5941 5942 5942 5943 5943 5944
5871 5868 5869 5873 5874 5875 5877 5880 5882 5881 5881 5885 5885 5886 5886 5885 5886 5887 5888 5888 5888 5887 5888 5889 5891 5892 5893 5895 5896 5896 5896 5897 5899 5900 5901 5902 5903 5904 5905 5907 5908 5909 5910 5912 5913 5913 5913 5914 5915 5915 5917 5918 5919 5919 5920 5921 5921 5922 5923 5923 5924 5925 5925 5926 5926 5927 5928 5929 5929 5930 5931 5931 5932 5933 5933 5934 5935 5936 5936 5937 5937 5938 5938 5938 5939 5939 5940 5940 5940 5941 5941 5941 5942 5943 5943 5943 5943
5868 5869 5871 5873 5873 5874 5876 5878 5879 5879 5881 5882 5883 5884 5884 5884 5884 5885 5886 5887 5887 5888 5887 5887 5888 5890 5891 5892 5893 5895 5895 5896 5897 5898 5899 5901 5902 5903 5904 5906 5907 5908 5909 5911 5912 5913 5913 5913 5914 5915 5916 5917 5918 5919 5920 5921 5921 5922 5923 5924 5924 5925 5926 5926 5927 5927 5928 5929 5930 5930 5931 5932 5933 5933 5934 5935 5935 5936 5937 5937 5937 5938 5938 5938 5939 5939 5940 5940 5941 5941 5941 5942 5943 5943 5943 5943 5943
5869 5870 5872 5874 5874 5873 5875 5877 5877 5878 5879 5880 5881 5882 5882 5882 5882 5882 5883 5884 5886 5887 5886 5885 5886 5887 5888 5889 5891 5893 5894 5894 5895 5897 5898 5899 5900 5902 5903 5904 5906 5907 5908 5910 5911 5912 5913 5913 5914 5914 5915 5917 5918 5919 5920 5921 5921 5922 5923 5924 5924 5925 5926 5926 5927 5928 5928 5929 5930 5930 5931 5932 5933 5934 5934 5935 5936 5937 5937 5937 5938 5938 5938 5938 5939 5940 5940 5941 5941 5941 5942 5942 5943 5943 5943 5943 5944
5869 5870 5872 5874 5874 5873 5874 5876 5876 5877 5878 5878 5878 5880 5880 5879 5880 5880 5880 5881 5884 5885 5884 5883 5885 5886 5887 5889 5890 5891 5892 5893 5894 5895 5896 5897 5899 5901 5902 5903 5904 5906 5907 5909 5910 5912 5913 5912 5913 5914 5915 5916 5917 5918 5919 5920 5921 5922 5923 5923 5924 5925 5926 5926 5927 5928 5928 5929 5929 5930 5931 5932 5933 5934 5935 5935 5936 5937 5937 5937 5938 5938 5938 5939 5939 5940 5940 5941 5941 5942 5942 5943 5943 5943 5943 5943 5944
5868 5870 5872 5873 5874 5875 5876 5877 5878 5879 5880 5877 5875 5878 5879 5877 5877 5878 5878 5880 5882 5882 5881 5881 5882 5884 5886 5887 5888 5889 5890 5892 5893 5893 5895 5896 5898 5899 5900 5901 5902 5904 5906 5907 5908 5910 5912 5911 5912 5913 5914 5915 5916 5917 5919 5920 5920 5921 5922 5923 5924 5925 5925 5926 5927 5927 5928 5928 5929 5930 5931 5931 5932 5933 5934 5935 5936 5936 5937 5937 5938 5938 5938 5939 5939 5940 5940 5940 5941 5942 5942 5942 5943 5943 5943 5943 5944
5868 5870 5871 5872 5875 5877 5877 5879 5880 5879 5880 5877 5875 5876 5876 5874 5874 5876 5876 5878 5879 5878 5878 5878 5879 5881 5883 5885 5886 5887 5887 5889 5890 5892 5893 5894 5896 5897 5898 5900 5901 5902 5904 5905 5906 5908 5910 5910 5911 5912 5913 5914 5915 5917 5918 5919 5920 5921 5922 5923 5924 5924 5925 5926 5926 5927 5928 5928 5929 5929 5930 5931 5932 5932 5933 5934 5935 5936 5937 5937 5938 5938 5939 5939 5939 5939 5940 5940 5941 5941 5942 5942 5942 5942 5943 5943 5943
5869 5868 5869 5872 5875 5875 5875 5877 5877 5876 5876 5875 5873 5872 5872 5872 5872 5873 5874 5875 5876 5876 5876 5876 5877 5878 5880 5881 5883 5885 5885 5886 5887 5889 5891 5892 5894 5895 5896 5898 5899 5900 5902 5903 5904 5906 5907 5909 5910 5911 5912 5914 5914 5916 5917 5918 5919 5920 5921 5922 5923 5924 5925 5925 5926 5927 5927 5928 5929 5929 5930 5931 5931 5932 5932 5933 5934 5935 5936 5937 5937 5938 5938 5939 5939 5939 5939 5940 5940 5940 5941 5941 5942 5942 5942 5943 5943
5868 5869 5870 5872 5872 5871 5871 5873 5873 5872 5873 5873 5872 5870 5869 5871 5871 5871 5873 5874 5874 5875 5874 5874 5877 5877 5878 5879 5880 5882 5884 5884 5885 5886 5888 5890 5891 5893 5894 5896 5897 5898 5900 5901 5903 5904 5905 5907 5908 5909 5911 5912 5914 5915 5916 5917 5918 5920 5921 5922 5923 5924 5924 5925 5926 5926 5927 5928 5929 5929 5930 5930 5931 5931 5932 5932 5933 5934 5935 5936 5936 5937 5938 5938 5938 5939 5939 5939 5939 5940 5940 5941 5941 5941 5942 5942 5943
5866 5868 5870 5870 5868 5866 5866 5868 5870 5870 5870 5872 5873 5872 5870 5869 5869 5869 5872 5871 5870 5872 5871 5872 5874 5877 5877 5877 5878 5880 5882 5883 5884 5885 5886 5888 5889 5890 5892 5894 5895 5896 5898 5899 5901 5902 5903 5905 5907 5908 5909 5910 5912 5914 5915 5916 5917 5918 5920 5921 5922 5923 5924 5925 5926 5926 5927 5928 5928 5929 5930 5930 5930 5931 5932 5932 5933 5933 5934 5935 5935 5936 5937 5937 5938 5938 5938 5938 5939 5939 5939 5940 5940 5941 5941 5942 5942
5864 5864 5865 5866 5866 5865 5865 5865 5867 5869 5870 5870 5872 5873 5870 5866 5866 5868 5870 5869 5868 5869 5869 5869 5870 5873 5875 5876 5875 5877 5879 5881 5883 5883 5884 5886 5886 5887 5889 5891 5893 5894 5896 5897 5899 5900 5901 5903 5905 5907 5907 5908 5910 5912 5913 5914 5915 5916 5918 5919 5921 5922 5923 5924 5925 5926 5926 5927 5928 5928 5929 5930 5930 5931 5931 5932 5933 5933 5934 5934 5935 5935 5936 5936 5937 5937 5938 5938 5938 5938 5939 5939 5940 5940 5941 5941 5942
5861 5861 5863 5864 5863 5864 5865 5863 5864 5866 5868 5869 5871 5872 5868 5864 5865 5866 5868 5868 5866 5867 5867 5867 5867 5868 5873 5875 5874 5875 5877 5879 5880 5880 5882 5883 5884 5885 5886 5888 5890 5892 5895 5897 5898 5899 5899 5900 5902 5904 5905 5907 5909 5910 5911 5912 5914 5915 5916 5917 5919 5920 5922 5923 5924 5925 5926 5926 5927 5928 5928 5929 5929 5930 5931 5931 5932 5932 5933 5933 5934 5934 5935 5935 5936 5936 5937 5937 5937 5937 5938 5939 5939 5940 5940 5941 5941
5858 5859 5862 5862 5861 5862 5862 5862 5862 5863 5864 5866 5868 5867 5863 5862 5863 5863 5864 5865 5864 5865 5865 5866 5865 5866 5870 5874 5874 5874 5875 5877 5878 5878 5880 5881 5882 5883 5883 5885 5887 5890 5893 5895 5896 5897 5898 5900 5901 5902 5903 5905 5907 5909 5909 5910 5912 5913 5914 5916 5918 5919 5920 5922 5922 5923 5924 5925 5926 5927 5927 5928 5928 5929 5930 5930 5931 5931 5932 5933 5933 5934 5934 5934 5935 5935 5935 5936 5936 5936 5937 5937 5938 5939 5939 5939 5940
5856 5857 5858 5858 5858 5859 5859 5860 5861 5862 5864 5864 5865 5863 5859 5859 5861 5861 5862 5863 5862 5863 5863 5864 5865 5865 5866 5870 5872 5873 5873 5874 5876 5876 5877 5878 5879 5880 5881 5882 5885 5888 5890 5892 5893 5894 5896 5898 5899 5899 5900 5902 5904 5906 5907 5908 5910 5911 5913 5915 5916 5917 5918 5919 5921 5922 5922 5923 5924 5925 5926 5926 5927 5928 5928 5929 5929 5930 5931 5931 5932 5933 5933 5934 5934 5934 5934 5935 5935 5935 5936 5936 5937 5937 5938 5938 5938